Location: Arrodets-la-Barthe
(43.0306°N, 0.2829°E)
Time: 18:22:03
(UTC+00:00)

Cosmos 2278 - Pass Details

Date: 24 October 2021
Orbit: 838 x 854 km, 71.1° (Epoch: 01 December)

Event Time Altitude Azimuth Distance (km) Brightness Sun altitude
Rises 17:37:06 0° 216° (SW) 3,388 7.6 -7.1°
Reaches altitude 10° 17:39:35 10° 220° (SW) 2,459 6.9 -7.5°
Maximum altitude 17:45:07 56° 298° (WNW) 1,001 4.5 -8.5°
Drops below altitude 10° 17:50:44 10° 17° (NNE) 2,485 5.9 -9.6°
Sets 17:53:15 0° 22° (NNE) 3,426 6.6 -10.0°
